Location: Unspecified
(48.2082°N, 0.0000°E)
Time: 06:42:02
(UTC+00:00)

A-11 Canister half - Pass Details

Date: 25 June 2019
Orbit: 1515 x 1685 km, 47.2° (Epoch: 15 July)

Event Time Altitude Azimuth Distance (km) Brightness Sun altitude
Rises 10:17:56 0° 235° (SW) 4,911 11.6 57.7°
Reaches altitude 10° 10:21:09 10° 232° (SW) 3,911 11.2 58.1°
Maximum altitude 10:30:58 64° 154° (SSE) 1,778 11.8 59.2°
Drops below altitude 10° 10:40:27 10° 77° (ENE) 3,793 11.4 60.3°
Sets 10:43:32 0° 74° (ENE) 4,757 11.7 60.6°
